Date String (YYYY-MM-DD hh:mm:ss) UTC,Instrument flags,Ambient pressure (hPa),Sample flow (lpm),Bypass flow (lpm),Sample temperature (°C),Ambient temperature (°C),ASC tube jacket temperature (°C),LED temperature (°C),Box temperature (°C),Sample RH (%),Span deviation,Mass concentration (μg/m³),Mass concentration (μg/m³),Mass concentration (μg/m³)
DateTimeUTC,F1_M11,P_M11,Q1_M11,Q2_M11,T1_M11,T2_M11,T3_M11,T4_M11,T5_M11,U1_M11,ZSPAN_M11,X0_M11,X2_M11,X1_M11
2022-12-04 00:00:00,,0827.9,4.99,0.00,24.7,23.1,00.0,33.7,26.5,11.9,0000.0,0016.86,0005.39,0004.23
2022-12-04 00:01:00,,0827.8,5.00,0.00,24.6,23.1,00.0,33.7,26.5,11.9,0000.0,0016.25,0005.23,0004.09
2022-12-04 00:02:00,,0827.9,5.00,0.00,24.6,23.1,00.0,33.6,26.5,11.7,0000.0,0014.73,0005.07,0003.99
2022-12-04 00:03:00,,0827.9,5.00,0.00,24.6,23.1,00.0,33.6,26.5,11.9,0000.0,0013.77,0004.92,0003.89
2022-12-04 00:04:00,,0827.9,5.00,0.00,24.6,23.0,00.0,33.6,26.4,11.8,0000.0,0012.44,0004.80,0003.81
2022-12-04 00:05:00,,0827.8,5.00,0.00,24.6,23.0,00.0,33.6,26.4,11.7,0000.0,0012.02,0004.78,0003.78
2022-12-04 00:06:00,,0827.8,5.00,0.00,24.6,23.0,00.0,33.6,26.4,11.7,0000.0,0012.50,0004.77,0003.77
2022-12-04 00:07:00,,0827.9,5.00,0.00,24.6,23.0,00.0,33.6,26.4,11.6,0000.0,0012.09,0004.77,0003.79
2022-12-04 00:08:00,,0827.9,5.00,0.00,24.5,22.9,00.0,33.6,26.4,11.6,0000.0,0012.20,0004.80,0003.84
2022-12-04 00:09:00,,0827.9,4.99,0.00,24.5,23.0,00.0,33.5,26.4,11.6,0000.0,0012.04,0004.89,0003.90
2022-12-04 00:10:00,,0827.9,4.99,0.00,24.5,23.0,00.0,33.5,26.4,11.6,0000.0,0012.23,0004.98,0003.98
2022-12-04 00:11:00,,0827.8,5.00,0.00,24.5,23.0,00.0,33.5,26.4,11.7,0000.0,0012.26,0005.10,0004.08
2022-12-04 00:12:00,,0827.9,5.00,0.00,24.5,22.9,00.0,33.5,26.3,11.8,0000.0,0012.99,0005.19,0004.18
2022-12-04 00:13:00,,0827.9,5.01,0.00,24.5,22.9,00.0,33.5,26.3,11.8,0000.0,0013.50,0005.24,0004.25
2022-12-04 00:14:00,,0828.0,5.01,0.00,24.5,22.9,00.0,33.5,26.3,11.7,0000.0,0014.67,0005.38,0004.35
2022-12-04 00:15:00,,0828.0,5.00,0.00,24.5,22.9,00.0,33.5,26.3,11.7,0000.0,0015.92,0005.54,0004.50
2022-12-04 00:16:00,,0828.0,5.00,0.00,24.5,23.0,00.0,33.5,26.3,11.7,0000.0,0016.93,0005.68,0004.62
2022-12-04 00:17:00,,0827.9,5.00,0.00,24.5,23.0,00.0,33.4,26.3,11.7,0000.0,0017.33,0005.88,0004.72
2022-12-04 00:18:00,,0828.0,5.00,0.00,24.5,23.0,00.0,33.4,26.3,11.7,0000.0,0018.19,0006.01,0004.80
2022-12-04 00:19:00,,0827.9,5.00,0.00,24.5,23.1,00.0,33.4,26.3,11.7,0000.0,0018.44,0006.09,0004.86
2022-12-04 00:20:00,,0827.9,4.99,0.00,24.5,23.1,00.0,33.4,26.4,11.6,0000.0,0018.90,0006.17,0004.92
2022-12-04 00:21:00,,0828.0,5.00,0.00,24.5,23.1,00.0,33.4,26.4,11.7,0000.0,0019.25,0006.21,0004.93
2022-12-04 00:22:00,,0828.0,5.00,0.00,24.5,23.2,00.0,33.4,26.3,11.8,0000.0,0019.24,0006.19,0004.92
2022-12-04 00:23:00,,0828.1,5.00,0.00,24.5,23.2,00.0,33.4,26.4,11.8,0000.0,0018.53,0006.23,0004.96
2022-12-04 00:24:00,,0827.9,5.00,0.00,24.5,23.2,00.0,33.4,26.4,11.9,0000.0,0018.01,0006.34,0005.03
2022-12-04 00:25:00,,0827.9,5.01,0.00,24.5,23.1,00.0,33.4,26.4,11.8,0000.0,0017.18,0006.45,0005.08
2022-12-04 00:26:00,,0828.0,5.00,0.00,24.5,23.0,00.0,33.4,26.4,11.6,0000.0,0016.57,0006.49,0005.08
2022-12-04 00:27:00,,0828.0,5.00,0.00,24.5,22.9,00.0,33.4,26.3,11.4,0000.0,0016.26,0006.46,0005.02
2022-12-04 00:28:00,,0828.0,5.00,0.00,24.4,22.9,00.0,33.4,26.3,11.4,0000.0,0016.43,0006.31,0004.97
2022-12-04 00:29:00,,0828.0,5.00,0.00,24.4,22.9,00.0,33.4,26.3,11.4,0000.0,0016.65,0006.26,0004.91
2022-12-04 00:30:00,,0828.1,5.00,0.00,24.4,23.0,00.0,33.4,26.3,11.4,0000.0,0016.70,0006.22,0004.88
2022-12-04 00:31:00,,0828.0,5.00,0.00,24.4,23.0,00.0,33.4,26.3,11.4,0000.0,0017.11,0006.17,0004.82
2022-12-04 00:32:00,,0828.1,5.00,0.00,24.4,23.0,00.0,33.4,26.2,11.4,0000.0,0018.20,0006.17,0004.83
2022-12-04 00:33:00,,0828.1,5.00,0.00,24.4,23.1,00.0,33.4,26.2,11.5,0000.0,0018.54,0006.25,0004.87
2022-12-04 00:34:00,,0828.1,5.00,0.00,24.4,23.0,00.0,33.4,26.2,11.6,0000.0,0018.70,0006.28,0004.89
2022-12-04 00:35:00,,0828.1,4.99,0.00,24.4,23.0,00.0,33.4,26.2,11.7,0000.0,0019.08,0006.28,0004.88
2022-12-04 00:36:00,,0828.1,5.00,0.00,24.4,23.0,00.0,33.4,26.2,11.7,0000.0,0019.89,0006.27,0004.86
2022-12-04 00:37:00,,0828.0,5.00,0.00,24.4,23.0,00.0,33.4,26.1,11.8,0000.0,0019.89,0006.23,0004.87
2022-12-04 00:38:00,,0828.0,5.01,0.00,24.4,23.0,00.0,33.4,26.1,11.8,0000.0,0019.32,0006.23,0004.89
2022-12-04 00:39:00,,0828.0,5.01,0.00,24.4,23.0,00.0,33.3,26.1,11.8,0000.0,0019.34,0006.26,0004.91
2022-12-04 00:40:00,,0828.0,5.01,0.00,24.4,22.9,00.0,33.3,26.2,11.9,0000.0,0017.92,0006.20,0004.88
2022-12-04 00:41:00,,0827.9,4.99,0.00,24.4,22.9,00.0,33.3,26.1,11.8,0000.0,0017.31,0006.11,0004.86
2022-12-04 00:42:00,,0827.9,4.99,0.00,24.3,22.9,00.0,33.3,26.0,11.8,0000.0,0016.67,0006.08,0004.86
2022-12-04 00:43:00,,0827.9,5.00,0.00,24.3,22.9,00.0,33.3,26.0,11.7,0000.0,0015.83,0006.13,0004.87
2022-12-04 00:44:00,,0827.9,5.00,0.00,24.3,22.9,00.0,33.3,26.0,11.9,0000.0,0015.50,0006.06,0004.85
2022-12-04 00:45:00,,0828.0,5.00,0.00,24.3,22.9,00.0,33.3,26.1,11.7,0000.0,0015.53,0005.98,0004.84
2022-12-04 00:46:00,,0828.0,5.01,0.00,24.3,22.9,00.0,33.3,26.1,11.6,0000.0,0015.37,0005.88,0004.79
2022-12-04 00:47:00,,0828.0,5.00,0.00,24.3,22.9,00.0,33.3,26.1,11.6,0000.0,0015.79,0005.82,0004.73
2022-12-04 00:48:00,,0828.0,5.00,0.00,24.3,22.9,00.0,33.3,26.2,11.5,0000.0,0016.94,0005.81,0004.69
2022-12-04 00:49:00,,0828.0,5.00,0.00,24.3,22.9,00.0,33.3,26.2,11.6,0000.0,0016.93,0005.84,0004.68
2022-12-04 00:50:00,,0827.9,5.00,0.00,24.3,22.9,00.0,33.3,26.2,11.4,0000.0,0016.31,0005.80,0004.66
2022-12-04 00:51:00,,0827.9,5.00,0.00,24.3,22.9,00.0,33.3,26.2,11.5,0000.0,0016.66,0005.80,0004.66
2022-12-04 00:52:00,,0827.9,4.99,0.00,24.3,22.9,00.0,33.3,26.2,11.4,0000.0,0017.94,0005.83,0004.68
2022-12-04 00:53:00,,0828.0,5.00,0.00,24.3,22.9,00.0,33.3,26.2,11.3,0000.0,0017.67,0005.86,0004.67
2022-12-04 00:54:00,,0827.9,5.00,0.00,24.3,22.9,00.0,33.3,26.2,11.2,0000.0,0017.26,0005.76,0004.63
2022-12-04 00:55:00,,0828.0,5.00,0.00,24.3,22.9,00.0,33.3,26.2,11.3,0000.0,0016.99,0005.72,0004.59
2022-12-04 00:56:00,,0828.0,5.00,0.00,24.3,22.9,00.0,33.3,26.2,11.4,0000.0,0016.94,0005.71,0004.51
2022-12-04 00:57:00,,0828.1,5.01,0.00,24.3,22.9,00.0,33.3,26.2,11.4,0000.0,0016.96,0005.68,0004.47
2022-12-04 00:58:00,,0828.1,5.00,0.00,24.3,22.9,00.0,33.3,26.2,11.4,0000.0,0015.73,0005.60,0004.44
2022-12-04 00:59:00,,0828.1,5.00,0.00,24.3,22.9,00.0,33.3,26.2,11.5,0000.0,0013.93,0005.54,0004.41
